Temperature
3 4 3 4 4 4 4 4 4 5 5 5 4 4 4 4 4 4 4 4 5 5 5 5 5 5 5 5 5 5 5 5 5 5 4 4 4 4 4 4 4 3 3 3
2 3 3 3 3 4 4 4 4 4 4 4 4 4 3 3 3 3 3 4 4 4 5 5 5 5 5 5 5 4 4 4 4 4 4 4 4 4 3 3 3 3 3 2
2 2 3 2 2 3 3 3 4 4 4 3 3 3 3 3 3 3 3 3 3 4 4 4 4 4 4 4 4 4 4 4 4 4 3 3 3 3 3 3 3 2 2 2
1 2 2 2 2 3 2 2 2 3 3 3 2 2 3 3 3 3 3 3 3 3 3 4 4 4 3 3 3 3 3 3 3 3 3 3 3 2 2 2 2 2 2 1
-0 1 1 2 2 1 2 1 1 2 2 1 2 2 1 2 3 3 3 3 3 3 3 3 3 3 3 3 3 2 2 2 2 2 2 2 2 2 2 1 1 1 1 1
-1 0 1 1 1 1 2 1 1 1 1 1 1 1 -0 1 2 2 2 2 2 2 2 2 2 2 2 2 2 2 2 2 2 2 2 1 1 1 1 1 1 0 0 0
-1 -1 -0 -0 0 1 1 1 0 0 0 0 -0 0 0 1 1 1 1 1 1 2 2 2 2 2 2 2 1 1 1 1 1 1 1 1 1 0 0 0 -0 -0 -0 -0
-2 -1 -1 -1 -0 -0 -0 -0 -0 -0 0 -0 -0 -0 -0 -0 0 0 0 0 1 1 1 1 1 1 1 1 1 1 1 1 1 1 0 0 -0 -0 -0 -0 -1 -1 -1 -1
-2 -2 -2 -2 -1 -1 -0 -1 -1 -1 -0 -0 -1 -1 -1 -1 -1 -1 -1 -0 -0 -0 -0 0 0 0 0 0 0 0 0 0 0 -0 -0 -1 -1 -1 -1 -1 -2 -2 -2 -1
-3 -3 -3 -2 -2 -1 -1 -1 -1 -1 -1 -1 -1 -2 -2 -2 -2 -2 -1 -1 -1 -1 -1 -1 -1 -1 -1 -1 -1 -1 -1 -1 -1 -1 -1 -1 -1 -2 -2 -2 -2 -2 -2 -2
-3 -3 -3 -3 -3 -2 -2 -2 -2 -2 -2 -2 -2 -2 -2 -3 -2 -2 -2 -2 -2 -2 -2 -2 -2 -1 -1 -1 -1 -1 -1 -1 -1 -2 -2 -2 -2 -2 -3 -3 -3 -3 -3 -3
-3 -3 -4 -4 -3 -3 -2 -3 -3 -3 -3 -3 -3 -3 -3 -3 -3 -3 -3 -3 -3 -3 -2 -2 -2 -2 -2 -2 -2 -2 -2 -2 -2 -2 -3 -3 -3 -3 -3 -3 -3 -3 -3 -3
-4 -3 -4 -4 -4 -3 -3 -3 -3 -3 -3 -4 -4 -4 -3 -3 -3 -3 -3 -3 -3 -3 -3 -3 -3 -3 -3 -3 -3 -3 -3 -3 -3 -3 -3 -4 -4 -4 -3 -3 -3 -3 -3 -3
-4 -4 -5 -5 -5 -4 -4 -4 -4 -4 -4 -4 -4 -4 -4 -4 -4 -4 -4 -4 -4 -4 -4 -4 -4 -4 -4 -4 -4 -4 -4 -4 -4 -4 -4 -4 -4 -4 -5 -4 -4 -4 -4 -4
-5 -4 -5 -5 -5 -5 -5 -4 -4 -5 -5 -5 -4 -4 -4 -4 -5 -4 -5 -5 -5 -4 -4 -4 -4 -4 -5 -5 -5 -5 -5 -5 -5 -5 -5 -5 -5 -5 -5 -5 -5 -5 -4 -4
-6 -5 -5 -5 -5 -5 -5 -5 -5 -5 -5 -5 -5 -5 -5 -5 -5 -5 -5 -5 -5 -5 -5 -5 -5 -5 -5 -5 -5 -5 -5 -5 -6 -6 -6 -6 -6 -6 -6 -6 -6 -6 -5 -5
-6 -6 -6 -6 -6 -6 -6 -6 -6 -6 -6 -6 -6 -6 -6 -6 -6 -6 -6 -6 -6 -6 -6 -6 -6 -6 -6 -6 -6 -6 -6 -6 -6 -6 -6 -6 -6 -6 -7 -7 -6 -6 -6 -6
-6 -6 -6 -6 -6 -6 -6 -6 -6 -6 -6 -6 -6 -6 -6 -7 -7 -7 -7 -7 -7 -7 -7 -7 -7 -7 -7 -7 -7 -7 -7 -7 -7 -7 -7 -7 -7 -7 -7 -7 -7 -7 -6 -6
-7 -7 -7 -7 -7 -7 -7 -7 -7 -7 -7 -7 -7 -7 -7 -7 -7 -7 -7 -7 -7 -7 -7 -7 -8 -8 -7 -7 -7 -7 -7 -7 -7 -7 -7 -7 -7 -7 -7 -7 -7 -7 -7 -7
-7 -7 -7 -7 -7 -7 -7 -7 -7 -7 -7 -7 -7 -8 -8 -8 -8 -8 -8 -8 -8 -8 -8 -8 -8 -8 -8 -8 -8 -8 -8 -8 -8 -8 -8 -8 -8 -8 -8 -8 -7 -7 -7 -7
-7 -7 -7 -7 -8 -8 -8 -8 -8 -8 -8 -8 -8 -8 -8 -8 -8 -8 -8 -8 -8 -8 -9 -9 -9 -8 -8 -8 -8 -8 -8 -8 -8 -8 -8 -8 -8 -8 -8 -8 -8 -8 -7 -7
-8 -8 -8 -8 -8 -8 -8 -8 -8 -8 -8 -8 -8 -9 -9 -9 -9 -9 -9 -9 -9 -9 -9 -9 -9 -9 -9 -9 -9 -9 -9 -9 -9 -9 -9 -9 -8 -8 -8 -8 -8 -8 -8 -8
-8 -8 -8 -9 -9 -9 -8 -8 -8 -9 -9 -9 -9 -9 -9 -9 -9 -9 -9 -9 -9 -9 -9 -9 -9 -9 -9 -9 -9 -9 -9 -9 -9 -9 -9 -9 -9 -9 -9 -8 -8 -8 -8 -8
-9 -9 -9 -9 -9 -9 -9 -9 -9 -9 -9 -9 -9 -9 -10 -10 -10 -9 -9 -9 -9 -9 -9 -9 -9 -9 -9 -9 -9 -9 -9 -9 -9 -9 -9 -9 -9 -9 -9 -9 -8 -8 -8 -8
-9 -9 -9 -9 -9 -9 -9 -9 -9 -9 -10 -9 -10 -10 -10 -10 -10 -10 -10 -9 -9 -9 -9 -9 -9 -9 -9 -9 -9 -9 -9 -9 -9 -9 -9 -9 -9 -9 -9 -9 -8 -8 -8 -8
-10 -10 -10 -10 -10 -10 -10 -10 -10 -10 -10 -10 -10 -10 -10 -10 -10 -10 -10 -10 -10 -10 -9 -9 -9 -9 -9 -9 -9 -9 -9 -9 -9 -9 -9 -9 -9 -9 -9 -9 -8 -8 -8 -8
-10 -10 -10 -10 -10 -11 -11 -10 -10 -10 -10 -10 -10 -10 -10 -10 -10 -10 -10 -10 -10 -10 -10 -10 -10 -10 -9 -9 -9 -9 -9 -9 -9 -9 -9 -9 -9 -9 -9 -9 -8 -8 -8 -8
Wind_Speed
2 2 4 4 7 8 7 7 7 6 5 4 3 4 3 4 5 6 5 5 5 5 4 4 4 3 3 2 2 2 3 2 2 2 2 1 1 2 2 2 3 3 4 4
1 1 2 1 3 6 6 5 5 4 3 2 1 4 4 4 5 5 4 4 4 4 4 4 3 3 2 1 1 2 2 2 1 1 1 1 1 1 2 3 3 3 4 4
1 1 3 2 4 5 4 4 6 7 6 3 3 4 4 4 4 4 3 3 3 3 3 3 3 3 2 1 1 2 1 1 1 1 1 1 2 2 2 3 3 4 4 5
1 2 5 4 2 3 5 2 3 3 4 5 4 3 3 3 4 3 2 3 2 2 2 2 2 2 2 2 2 2 1 1 0 1 1 2 2 2 3 3 3 4 4 5
2 2 2 4 2 0 3 2 1 4 3 3 4 5 3 3 3 3 2 3 2 2 2 2 2 2 3 2 2 2 1 1 1 1 2 2 2 3 3 3 3 4 4 5
2 3 4 4 4 3 3 1 2 3 4 4 5 3 2 1 3 4 4 4 3 3 3 3 2 2 3 2 2 1 1 1 2 2 1 2 3 3 3 3 4 5 5 5
3 2 3 4 5 1 4 4 2 1 3 4 3 3 3 3 4 4 4 4 4 4 4 2 2 3 3 2 1 1 1 2 2 2 2 2 2 3 3 4 4 4 6 6
3 2 4 4 2 2 2 0 2 2 3 5 5 6 5 5 4 4 5 5 5 4 3 3 3 3 3 2 2 2 2 2 2 2 2 3 3 3 3 3 4 4 5 6
3 3 2 2 2 1 1 2 2 2 4 6 6 5 5 4 4 4 4 4 4 4 4 4 4 2 2 2 2 2 2 2 2 3 3 3 3 3 3 3 3 4 4 5
1 1 2 3 3 5 4 3 3 4 5 5 6 5 5 4 4 4 4 4 3 4 4 4 4 4 2 2 2 2 2 2 2 2 3 3 3 3 3 3 4 4 5 5
1 0 2 4 4 4 5 6 6 6 5 5 6 5 4 4 3 3 3 3 3 3 3 3 4 4 4 3 2 2 2 2 3 2 3 3 4 3 4 4 5 5 5 5
3 3 2 1 2 3 5 5 5 5 5 5 5 5 4 3 2 2 2 3 3 3 3 3 4 4 4 4 3 2 2 2 2 3 3 3 4 5 7 7 9 10 9 8
1 1 2 2 3 4 5 4 5 5 4 4 4 4 4 3 2 2 2 2 2 2 3 3 3 4 4 4 4 3 3 3 3 3 3 3 4 4 6 7 9 9 10 10
3 3 3 2 3 4 4 4 5 5 5 4 3 3 3 2 2 2 2 2 2 2 2 3 3 4 5 4 4 4 3 4 4 3 3 4 4 4 4 5 6 6 7 10
5 3 2 3 3 4 4 4 5 4 4 4 3 3 2 2 1 1 2 2 2 2 3 3 4 5 5 4 4 4 4 3 3 3 3 4 4 4 4 5 5 5 5 6
3 4 4 4 3 3 3 3 3 2 2 2 2 1 1 1 1 1 2 2 2 3 4 4 4 5 4 4 4 4 4 7 6 4 3 4 4 4 4 4 4 4 5 5
1 1 2 2 1 1 1 0 1 0 0 1 1 0 1 1 1 2 2 2 2 3 3 4 5 5 5 4 4 3 4 5 7 5 4 4 4 4 4 4 4 4 4 5
1 1 2 2 2 1 1 1 0 0 1 1 1 1 1 0 1 2 3 3 3 3 4 4 5 5 4 4 4 3 4 4 4 4 4 4 4 3 4 4 4 5 5 5
1 1 1 0 1 1 0 1 1 1 1 1 0 1 1 2 2 2 3 3 3 5 5 5 7 6 5 5 5 3 4 4 4 4 3 5 5 3 3 4 4 4 4 5
2 2 2 1 1 0 0 1 1 1 1 1 1 1 2 2 2 2 3 3 4 4 5 6 6 5 4 5 6 3 3 4 4 4 3 3 3 3 4 4 4 4 4 4
3 3 2 2 2 1 1 1 1 1 2 2 1 2 2 3 3 2 2 4 5 5 5 7 5 4 4 4 5 3 3 3 3 3 3 3 3 3 4 4 4 4 4 4
2 2 2 2 1 2 2 1 1 2 2 2 2 2 2 3 3 3 3 4 5 7 5 4 4 5 5 6 3 3 3 3 3 3 3 3 3 3 4 4 4 4 4 4
2 2 2 2 2 2 3 2 2 2 2 3 3 3 3 3 3 3 4 4 4 6 5 4 5 7 7 4 2 3 3 3 3 3 3 3 3 3 4 4 4 4 4 4
2 2 2 2 1 1 3 3 3 2 2 3 3 3 3 3 3 3 4 6 7 7 5 5 7 7 6 3 2 2 3 3 3 3 3 3 3 3 4 4 4 4 3 4
2 2 2 2 2 2 3 3 3 3 3 2 3 3 3 3 3 3 3 4 6 6 4 5 7 7 5 3 2 3 3 3 3 3 3 3 3 3 3 3 3 3 3 3
2 2 2 2 2 2 2 2 2 2 2 3 3 3 3 2 2 3 3 3 4 5 4 3 4 5 3 3 3 3 3 3 4 3 3 3 3 3 3 3 4 3 3 3
2 2 2 2 2 2 2 2 2 3 3 3 4 4 3 3 2 2 3 3 3 3 3 3 3 3 3 3 3 3 3 3 3 3 2 3 3 3 3 3 3 3 3 2
Wind_Direction
249 221 176 190 196 190 191 184 183 201 195 219 205 170 154 133 114 101 96 101 108 111 112 110 106 106 112 120 126 138 145 165 200 219 224 226 241 260 276 279 280 273 278 283
333 166 148 160 206 196 194 181 185 171 241 256 140 113 109 124 126 122 120 115 106 107 114 119 120 117 106 112 133 136 149 177 201 213 234 242 252 268 290 294 296 293 285 283
217 236 99 249 236 202 181 182 178 205 219 164 123 134 155 159 141 141 135 120 119 124 133 139 145 139 130 130 106 113 133 148 195 215 249 265 275 286 282 283 297 297 292 288
136 108 193 242 288 174 163 177 173 171 172 167 164 140 102 114 132 132 122 112 107 104 103 110 113 110 108 92 91 91 84 59 328 282 284 293 283 274 278 287 287 287 291 292
137 175 260 304 325 174 178 246 268 176 175 147 119 87 45 37 81 116 114 104 104 103 96 82 77 89 94 76 70 67 47 8 338 317 301 297 287 281 289 292 294 289 288 291
131 159 214 255 302 306 123 246 304 179 185 169 134 149 225 7 60 70 79 81 78 76 75 64 45 82 92 77 65 42 341 326 329 323 310 292 286 292 299 295 292 293 293 292
154 194 257 287 310 40 153 223 304 170 164 154 156 170 152 106 76 78 79 79 76 75 69 50 36 81 88 71 22 314 329 347 346 341 320 301 304 309 305 306 305 303 300 298
146 179 249 320 43 135 203 13 59 80 98 106 104 101 99 92 84 78 73 71 70 68 50 31 37 76 73 29 333 343 1 357 350 341 333 338 328 319 315 310 307 306 307 308
175 195 294 351 87 38 64 74 53 78 94 111 108 103 95 85 82 75 72 65 61 69 47 24 22 54 59 347 341 354 5 355 341 336 333 328 317 312 316 313 305 305 306 306
119 8 357 29 37 37 50 62 62 88 99 104 110 109 99 91 82 73 64 60 58 58 46 20 12 22 24 349 353 13 6 340 332 331 326 322 317 308 305 303 301 302 304 303
117 285 25 15 25 47 57 62 65 66 74 97 109 105 101 96 88 80 67 51 50 52 38 9 6 8 360 355 10 8 343 327 323 319 309 310 310 298 296 282 286 296 289 289
206 215 182 254 2 61 71 63 64 73 67 67 95 105 96 88 77 71 59 50 44 35 24 0 358 359 353 352 358 352 333 324 317 314 310 307 307 313 313 309 311 310 307 302
195 94 106 88 55 61 71 67 66 73 87 83 77 95 97 90 70 61 49 40 33 18 5 357 356 352 346 346 346 342 318 310 309 314 311 308 305 305 312 322 321 318 318 317
55 77 78 58 62 59 71 70 70 65 64 75 83 84 87 83 69 54 29 6 8 13 2 352 347 337 335 339 341 335 322 312 312 300 296 295 295 297 298 304 313 317 322 325
27 48 111 94 70 62 65 75 73 63 56 51 64 79 84 79 56 19 4 2 8 4 348 341 335 327 331 334 332 325 318 309 304 299 295 293 296 297 297 296 300 308 316 322
35 58 86 92 84 69 69 76 84 67 53 48 51 58 61 58 28 0 352 351 345 329 324 325 319 317 322 324 323 319 311 312 313 306 298 297 297 296 298 302 306 309 311 314
93 88 99 107 90 65 55 82 134 148 19 16 356 21 63 41 12 348 335 329 314 303 306 306 305 311 315 314 309 305 303 304 309 307 300 295 296 298 302 303 303 305 306 311
163 196 193 185 190 197 345 11 49 15 302 300 343 36 37 349 300 305 312 319 322 316 308 302 302 307 308 309 303 295 293 295 299 297 300 301 303 302 304 305 306 308 311 316
42 52 49 142 190 169 216 294 318 326 323 327 340 311 297 292 287 293 304 313 310 306 306 303 310 316 311 308 306 293 292 294 296 295 298 303 310 312 310 308 307 308 310 314
25 25 26 11 5 45 274 304 327 339 324 309 287 296 304 301 295 297 304 297 287 281 289 299 304 302 299 299 303 296 290 289 292 296 301 302 304 307 307 307 308 310 311 311
1 360 2 356 351 355 329 293 277 291 305 302 271 263 278 292 292 286 289 295 298 295 297 303 307 301 301 300 303 295 290 290 291 292 295 297 298 299 301 303 306 308 310 312
338 338 334 333 334 330 326 321 289 283 297 300 296 283 284 294 299 297 280 273 287 302 308 300 297 298 304 303 301 299 297 296 294 291 290 289 291 296 300 303 304 306 309 312
314 314 315 315 306 303 316 317 302 286 282 285 285 280 274 278 282 281 292 293 294 301 307 297 298 304 308 312 308 299 295 293 291 288 287 287 289 293 296 298 299 302 305 312
316 318 313 311 315 321 319 317 315 307 294 291 285 277 268 278 291 281 268 287 302 305 305 301 308 312 316 315 304 297 292 288 285 283 285 286 287 288 289 291 294 300 306 312
306 307 309 315 313 302 298 310 323 322 315 306 299 292 280 264 264 280 286 287 296 306 308 311 315 319 321 311 302 295 290 285 283 282 281 285 287 289 290 291 295 301 306 308
301 302 294 282 272 274 284 293 296 297 300 304 306 305 301 290 277 280 288 292 292 304 311 309 311 313 314 312 306 301 293 294 296 294 290 286 285 287 291 295 296 298 300 305
307 305 307 309 306 291 283 279 279 285 286 286 294 299 300 298 294 294 294 300 304 308 308 307 307 305 304 304 302 300 297 293 290 289 287 282 281 282 288 293 296 300 308 315
Height
1434 1432 1434 1434 1435 1437 1440 1443 1448 1446 1446 1445 1445 1445 1446 1447 1448 1449 1451 1452 1453 1455 1457 1459 1461 1463 1465 1467 1469 1470 1472 1473 1474 1475 1476 1476 1476 1476 1475 1475 1473 1472 1470 1468
1436 1432 1432 1435 1435 1435 1437 1440 1442 1444 1446 1444 1444 1445 1447 1448 1448 1450 1451 1453 1454 1455 1457 1458 1460 1462 1464 1465 1467 1468 1469 1470 1471 1472 1472 1473 1472 1472 1471 1470 1469 1468 1466 1464
1439 1436 1434 1441 1438 1437 1437 1438 1439 1441 1443 1443 1445 1446 1447 1448 1449 1450 1451 1453 1454 1455 1456 1458 1460 1461 1462 1464 1465 1466 1466 1467 1468 1469 1469 1469 1469 1468 1467 1466 1465 1464 1462 1460
1443 1440 1441 1440 1435 1434 1435 1438 1438 1438 1439 1441 1443 1445 1447 1448 1449 1450 1451 1452 1454 1455 1456 1457 1459 1460 1461 1462 1463 1463 1464 1465 1465 1465 1465 1465 1465 1464 1463 1462 1461 1460 1458 1456
1446 1445 1443 1438 1436 1436 1437 1439 1438 1438 1439 1441 1443 1445 1448 1449 1449 1450 1451 1452 1454 1455 1456 1457 1458 1459 1459 1460 1461 1461 1462 1462 1462 1462 1462 1462 1461 1460 1459 1458 1457 1456 1454 1452
1447 1447 1445 1439 1435 1434 1436 1441 1438 1437 1438 1440 1441 1448 1449 1448 1449 1450 1451 1452 1453 1454 1455 1456 1457 1457 1458 1458 1459 1459 1460 1460 1460 1460 1459 1458 1458 1457 1456 1455 1453 1452 1450 1449
1447 1449 1445 1439 1435 1434 1441 1441 1437 1436 1437 1438 1440 1443 1446 1447 1449 1450 1450 1451 1452 1453 1454 1454 1455 1456 1456 1457 1457 1458 1458 1458 1458 1457 1456 1456 1455 1454 1453 1451 1450 1448 1447 1445
1448 1449 1447 1438 1436 1439 1439 1437 1436 1437 1437 1438 1440 1442 1444 1446 1448 1449 1450 1451 1452 1452 1453 1453 1454 1455 1455 1455 1456 1456 1456 1455 1455 1454 1454 1453 1452 1450 1449 1448 1446 1444 1443 1441
1445 1446 1442 1439 1438 1438 1437 1437 1437 1437 1438 1439 1440 1442 1444 1446 1447 1448 1449 1450 1451 1451 1452 1452 1453 1453 1453 1454 1454 1454 1453 1453 1452 1452 1451 1450 1449 1447 1446 1444 1443 1441 1439 1437
1444 1443 1442 1440 1439 1438 1438 1438 1438 1438 1439 1440 1441 1442 1444 1446 1447 1448 1449 1450 1450 1451 1451 1451 1451 1452 1452 1452 1452 1451 1451 1450 1449 1449 1448 1447 1445 1444 1442 1441 1439 1438 1436 1434
1443 1443 1442 1441 1441 1440 1440 1439 1439 1440 1440 1441 1441 1443 1444 1445 1447 1448 1449 1449 1450 1450 1450 1450 1450 1450 1450 1450 1449 1449 1448 1447 1447 1446 1444 1443 1442 1441 1439 1438 1437 1435 1433 1431
1443 1442 1442 1442 1442 1441 1441 1440 1441 1441 1441 1443 1443 1443 1445 1446 1447 1448 1449 1449 1449 1449 1449 1449 1449 1449 1448 1448 1447 1446 1445 1444 1443 1442 1441 1440 1438 1437 1436 1435 1433 1431 1430 1428
1441 1441 1441 1442 1442 1442 1442 1442 1442 1442 1443 1443 1444 1445 1445 1446 1447 1448 1448 1449 1448 1448 1448 1447 1447 1446 1446 1445 1444 1443 1442 1441 1440 1439 1437 1436 1435 1433 1431 1430 1429 1428 1426 1424
1441 1441 1442 1442 1443 1443 1443 1443 1443 1443 1444 1444 1444 1445 1446 1446 1447 1447 1447 1447 1447 1447 1446 1446 1445 1444 1443 1443 1442 1440 1439 1438 1437 1436 1434 1433 1432 1430 1428 1426 1424 1422 1422 1420
1442 1442 1442 1443 1443 1443 1443 1443 1443 1443 1443 1444 1445 1445 1445 1445 1446 1446 1446 1446 1445 1445 1444 1443 1442 1442 1441 1440 1438 1437 1436 1435 1434 1432 1431 1430 1428 1427 1425 1423 1421 1419 1417 1416
1443 1443 1443 1443 1443 1443 1443 1443 1443 1443 1443 1443 1444 1444 1444 1444 1444 1444 1444 1444 1443 1442 1441 1440 1439 1439 1438 1437 1435 1434 1433 1432 1430 1429 1428 1427 1425 1423 1422 1420 1418 1416 1414 1413
1443 1443 1443 1443 1443 1443 1443 1443 1443 1442 1442 1442 1443 1443 1443 1442 1442 1442 1442 1441 1441 1439 1438 1437 1436 1435 1434 1433 1432 1430 1429 1428 1427 1426 1424 1423 1422 1420 1419 1417 1415 1413 1412 1411
1443 1443 1443 1442 1442 1442 1442 1442 1442 1442 1442 1441 1441 1441 1441 1440 1440 1439 1439 1438 1437 1436 1435 1434 1433 1432 1430 1429 1428 1427 1425 1424 1423 1422 1421 1420 1418 1417 1416 1414 1413 1411 1409 1408
1442 1442 1442 1442 1441 1441 1441 1441 1441 1440 1440 1440 1439 1439 1438 1438 1437 1436 1436 1435 1433 1432 1431 1431 1429 1428 1427 1425 1424 1423 1422 1421 1420 1419 1418 1416 1415 1414 1413 1411 1410 1408 1407 1405
1441 1441 1441 1440 1440 1440 1440 1439 1439 1439 1438 1438 1437 1436 1436 1435 1435 1434 1432 1431 1430 1429 1428 1427 1425 1424 1423 1422 1421 1420 1419 1418 1416 1415 1414 1413 1412 1411 1410 1409 1407 1406 1405 1403
1440 1440 1439 1439 1439 1438 1438 1437 1437 1436 1436 1435 1435 1434 1433 1432 1431 1430 1429 1427 1427 1426 1424 1423 1422 1420 1419 1418 1417 1416 1415 1414 1413 1412 1411 1410 1409 1408 1407 1406 1405 1404 1403 1401
1439 1439 1438 1438 1437 1436 1436 1435 1435 1434 1433 1433 1432 1431 1430 1429 1428 1427 1426 1425 1423 1422 1421 1420 1418 1417 1416 1416 1415 1413 1412 1411 1410 1409 1408 1407 1406 1405 1405 1404 1403 1402 1401 1400
1438 1437 1437 1436 1435 1434 1434 1433 1432 1431 1430 1430 1429 1428 1427 1426 1425 1424 1422 1422 1420 1419 1418 1417 1416 1415 1414 1413 1412 1410 1409 1408 1407 1406 1405 1404 1404 1403 1402 1401 1401 1400 1399 1398
1436 1436 1435 1434 1433 1432 1431 1430 1430 1429 1428 1427 1426 1425 1425 1423 1422 1421 1420 1419 1418 1417 1415 1414 1413 1412 1411 1410 1409 1408 1406 1405 1404 1403 1403 1402 1401 1401 1400 1399 1399 1398 1398 1397
1435 1434 1433 1432 1431 1430 1429 1428 1427 1426 1425 1424 1423 1423 1422 1421 1420 1418 1417 1416 1415 1414 1413 1412 1411 1410 1408 1407 1406 1405 1404 1403 1402 1401 1400 1400 1399 1398 1398 1397 1397 1396 1396 1396
1433 1432 1431 1430 1429 1428 1427 1425 1424 1423 1422 1421 1420 1420 1419 1418 1417 1416 1414 1413 1412 1411 1410 1409 1408 1407 1406 1405 1404 1403 1401 1400 1400 1399 1398 1398 1397 1397 1396 1396 1395 1395 1395 1394
1431 1430 1429 1428 1427 1426 1424 1423 1422 1421 1420 1419 1418 1417 1416 1415 1414 1413 1412 1411 1410 1409 1408 1407 1406 1405 1404 1403 1401 1400 1399 1398 1398 1397 1396 1396 1395 1395 1395 1394 1394 1394 1393 1393